SCP
0 0 0 0 0 0 0 0 0 0 0 0 0 -0 0 0 0 0 0 0 0 0 -0 0 0 0 0 -0 -0 -0 0 0 0 0 0 0 0 0 0 0 0 0 0 0
0 0 0 0 0 0 0 0 0 0 0 0 0 0 0 0 0 0 0 0 0 0 -0 0 0 0 0 0 0 0 0 0 0 0 0 0 0 0 -0 0 0 0 0 0
0 0 0 0 0 0 0 0 0 0 0 0 0 0 0 0 0 0 0 0 0 0 0 0 0 0 0 0 0 0 0 0 0 0 0 0 0 0 0 0 0 0 0 0
0 0 0 0 0 0 0 0 0 0 0 0 0 0 0 0 0 0 0 0 0 0 0 0 0 0 0 0 0 0 0 0 0 0 0 0 0 0 0 0 0 0 0 0
0 0 0 0 0 1 0 0 0 0 0 0 0 0 0 0 0 0 0 0 0 0 0 0 0 0 0 0 0 0 0 0 0 0 0 0 0 0 0 0 0 0 0 0
0 0 0 0 0 1 0 0 0 0 0 0 0 0 0 0 0 0 0 0 0 0 0 0 0 0 0 0 0 0 0 0 0 0 0 0 0 0 0 0 0 0 0 0
0 0 0 0 1 0 0 0 0 0 0 0 0 0 0 0 0 0 0 0 0 0 0 0 0 0 0 0 0 0 0 0 0 0 0 0 0 0 0 0 0 0 0 0
0 0 0 0 1 0 0 0 0 0 0 0 0 0 0 0 0 0 0 0 0 0 0 0 0 0 0 0 0 0 0 0 0 0 0 0 0 0 0 0 0 0 0 0
0 0 0 0 0 0 0 0 0 0 0 0 0 0 0 0 0 0 0 0 0 0 0 0 0 0 0 0 0 0 0 0 0 0 0 0 0 0 0 0 0 0 0 0
0 0 0 0 0 0 0 0 0 0 0 0 0 0 0 0 0 0 0 0 0 0 0 0 0 0 0 0 0 0 0 0 0 0 0 0 0 0 0 0 0 0 0 0
0 0 0 0 0 0 0 0 0 0 0 0 0 0 0 0 0 0 0 0 0 0 0 0 0 0 0 0 0 0 0 0 0 0 0 0 0 0 0 0 0 0 0 0
0 0 0 0 0 0 0 0 0 0 0 0 0 0 0 0 0 0 0 0 0 0 0 0 0 0 0 0 0 0 0 0 0 0 0 0 0 0 0 0 0 0 0 0
0 0 0 0 0 0 0 0 0 0 0 0 0 0 0 0 0 0 0 0 0 0 0 0 0 0 0 0 0 0 0 0 0 0 0 0 0 0 0 0 0 0 0 0
0 0 0 0 0 0 0 0 0 0 0 0 0 0 0 0 0 0 0 0 0 0 0 0 0 0 0 0 0 0 0 0 0 0 0 0 0 0 0 0 0 0 0 0
0 0 0 0 0 0 0 0 0 0 0 0 0 0 0 0 0 0 0 0 0 0 0 0 0 0 0 0 0 0 0 0 0 0 -0 -0 -0 0 0 0 0 0 0 0
0 0 0 0 -0 0 0 0 0 0 0 0 0 0 0 0 0 0 0 0 0 0 0 0 0 0 0 0 0 0 0 0 0 0 0 0 -0 0 0 0 0 0 0 0
0 0 0 0 0 0 0 0 0 0 0 0 0 0 0 0 0 0 0 0 0 0 0 0 0 0 0 0 0 0 0 0 0 0 0 0 0 0 0 0 0 0 0 0
0 0 0 0 0 0 0 0 0 0 0 0 0 0 0 0 0 0 0 0 0 0 0 0 -0 -0 -0 -0 -0 -0 0 0 0 0 0 0 0 0 0 0 0 0 0 0
0 0 0 0 0 0 0 0 0 0 0 0 0 0 0 0 0 0 0 0 0 0 -0 -0 -0 0 -0 -0 -0 0 0 0 0 0 0 0 0 0 0 0 0 0 0 0
0 0 0 0 0 0 0 0 0 0 0 0 0 0 0 0 0 0 0 0 0 0 0 0 0 0 -0 0 0 0 0 0 0 0 0 0 0 0 0 0 0 0 0 0
0 0 0 0 0 0 0 0 0 0 0 0 0 0 0 0 0 0 0 0 0 0 0 0 0 0 0 0 0 0 0 0 0 0 0 0 0 0 0 0 0 0 0 0
0 0 0 0 0 0 0 0 0 0 0 0 0 0 0 0 0 0 0 0 0 0 0 0 0 0 0 0 0 0 0 0 0 0 0 0 0 0 0 0 0 0 0 0
0 0 0 0 0 0 0 0 0 0 0 0 0 0 0 0 0 0 0 0 0 0 0 0 0 0 0 0 0 0 0 0 0 0 0 0 0 0 0 0 0 0 0 0
0 0 0 0 0 0 0 0 0 0 0 0 0 0 0 0 0 0 0 0 0 0 0 0 0 0 0 0 0 0 0 0 0 0 0 0 0 0 0 0 0 0 0 0
-0 0 0 0 0 0 -0 0 0 0 0 0 0 0 0 0 0 0 0 0 0 0 0 0 0 0 0 0 0 0 0 0 0 0 0 0 0 0 0 0 0 0 0 0
0 0 0 0 0 0 0 0 0 0 0 0 0 0 0 0 0 0 0 0 0 0 0 0 0 0 0 0 0 0 0 0 0 0 0 0 0 0 0 0 0 0 0 0
0 0 0 -0 0 0 0 0 0 0 0 0 0 0 0 0 0 0 0 0 0 0 0 0 0 0 0 0 0 0 0 0 0 0 0 0 0 0 0 0 0 0 0 0
Wind_Speed_500mb
10 8 8 6 9 13 8 10 9 8 15 15 23 26 27 30 36 42 41 45 48 47 44 39 36 30 30 28 23 24 19 15 13 8 3 8 8 8 8 12 15 18 18 19
6 5 15 10 12 13 9 8 6 6 16 7 16 31 26 32 45 49 55 44 43 43 42 40 31 23 22 24 28 30 30 22 21 18 7 5 7 4 5 6 9 12 13 16
6 6 1 4 11 12 9 9 12 11 11 5 4 14 30 32 46 56 61 50 42 39 37 35 32 28 22 19 22 29 33 32 30 24 13 7 4 3 3 4 4 7 9 11
6 5 5 13 6 7 7 2 5 5 7 9 15 25 23 24 31 44 47 40 35 35 32 26 23 18 15 16 18 18 21 34 39 31 19 15 10 9 7 5 3 3 5 6
8 8 10 1 6 4 4 6 4 3 7 24 42 30 15 20 26 43 38 33 32 28 22 16 12 12 14 17 19 19 22 25 34 37 29 23 16 16 15 10 5 2 1 4
6 8 13 12 2 12 5 7 6 5 12 30 41 10 5 22 30 37 33 27 21 17 13 9 8 11 13 13 15 16 17 21 27 31 34 28 19 23 21 19 12 7 4 6
6 6 11 5 21 17 10 12 2 12 20 15 7 7 35 31 29 28 26 22 18 13 10 9 8 9 11 11 10 9 8 11 22 31 39 35 25 28 28 25 19 11 6 6
4 5 11 15 13 8 4 2 16 26 33 24 28 34 40 35 30 25 21 19 14 10 8 8 6 4 5 4 5 4 2 3 14 25 36 40 35 33 32 27 20 14 9 9
12 9 7 13 16 20 15 9 12 29 34 32 31 31 36 40 33 26 21 15 11 9 7 5 3 1 1 1 4 4 2 4 2 12 23 31 36 39 35 33 26 15 14 13
3 5 7 15 17 14 11 10 13 30 36 34 30 37 38 33 27 20 16 14 12 9 6 4 3 3 5 7 9 8 6 6 1 5 11 19 23 23 18 17 19 16 13 11
7 11 9 11 5 9 4 7 17 34 36 32 34 42 35 32 26 18 15 16 14 11 8 8 10 9 10 11 12 6 11 13 12 8 8 12 16 18 17 18 15 11 15 14
9 12 6 5 5 4 5 11 16 20 29 30 34 34 33 27 17 13 15 17 16 14 11 14 15 14 16 17 17 15 17 21 20 17 17 16 14 14 16 16 16 19 18 13
7 7 9 2 8 10 11 9 13 15 18 29 28 25 27 25 20 19 21 21 17 18 17 14 14 16 18 19 22 22 21 27 27 27 26 24 21 16 11 18 19 18 16 19
4 8 5 3 6 3 8 12 11 16 22 24 28 27 22 21 22 21 25 28 18 19 19 16 14 13 17 23 25 28 35 39 37 37 34 31 27 24 21 17 11 14 17 18
7 10 12 16 13 6 13 13 20 27 28 29 24 17 19 19 19 20 23 23 20 22 22 22 24 30 35 36 38 42 42 43 40 41 40 36 32 32 30 26 17 12 17 22
22 15 11 14 15 12 15 16 20 26 31 30 23 20 16 19 26 27 29 27 29 29 27 34 37 40 42 41 40 40 39 36 33 30 28 26 24 23 23 22 16 11 14 18
16 20 19 21 22 21 17 18 23 23 27 25 21 23 28 33 34 31 28 25 26 33 35 38 41 41 38 36 35 32 26 23 17 12 9 8 8 7 5 6 9 7 10 15
29 32 32 28 24 25 24 22 26 26 26 23 22 23 28 31 33 33 31 30 34 36 41 42 36 33 32 30 27 22 16 8 3 3 8 8 10 12 12 10 7 3 6 13
24 41 40 38 30 28 29 29 38 36 31 28 24 22 23 26 31 37 37 34 35 42 44 41 37 31 26 21 17 15 13 10 10 14 20 22 21 18 17 19 16 15 11 11
18 24 40 41 32 33 37 34 36 40 37 32 26 26 29 28 33 35 36 34 35 40 40 35 30 22 17 15 17 19 18 17 22 28 32 34 32 27 19 13 14 18 17 12
19 20 29 38 31 30 27 23 32 41 39 35 31 29 32 34 37 37 41 42 42 39 35 30 25 18 13 6 8 12 22 23 21 27 31 34 33 33 29 22 20 20 19 19
19 18 27 33 27 19 17 21 23 24 27 34 36 32 36 40 43 43 41 40 38 32 27 27 27 25 18 12 12 10 15 23 30 31 32 33 32 36 33 30 35 35 33 31
18 15 29 30 25 21 23 26 27 22 21 32 40 38 38 41 49 50 50 45 39 33 26 23 23 15 10 8 11 15 21 26 28 26 24 22 19 15 19 27 34 40 48 50
9 24 29 29 30 24 24 24 18 17 21 27 27 28 32 42 50 44 38 38 41 33 35 20 19 12 4 10 19 25 24 25 25 23 19 13 12 20 30 35 35 40 46 49
28 38 45 43 37 29 10 22 23 18 21 19 18 15 14 26 40 41 39 37 29 29 25 18 16 11 4 7 15 18 19 20 16 14 16 17 24 28 30 31 35 34 30 28
43 47 39 23 3 12 23 25 29 25 20 22 18 19 35 39 37 33 28 22 30 29 19 11 9 11 6 7 12 14 15 16 17 15 19 25 31 33 34 34 32 31 34 36
43 40 41 41 38 36 32 28 29 31 32 44 52 41 32 27 14 15 21 20 15 14 1 4 5 5 10 15 17 23 24 27 28 26 30 33 33 31 30 31 33 36 39 41
Wind_Direction_500mb
248 225 192 222 188 170 146 157 148 233 202 243 226 212 183 183 178 178 180 175 190 186 191 192 197 200 205 206 200 210 201 195 178 170 36 9 18 27 75 77 75 69 65 66
341 304 182 194 228 196 175 139 290 232 258 223 256 199 175 172 179 176 180 191 191 191 200 205 216 215 235 215 212 211 213 217 211 213 201 330 1 37 97 93 75 66 67 70
257 338 100 5 200 209 194 165 153 190 241 153 117 141 178 176 186 186 183 180 183 186 191 200 208 209 211 213 215 218 219 223 238 219 216 247 283 166 163 140 93 80 76 78
184 21 188 239 305 246 230 162 223 215 215 182 150 142 138 177 178 179 178 180 174 172 175 175 192 199 217 233 253 251 240 230 236 229 220 229 231 212 188 169 147 125 122 100
151 183 278 273 46 71 90 293 14 17 136 136 141 134 100 130 161 168 170 173 174 180 188 194 212 241 264 270 267 264 252 243 237 235 227 225 222 218 206 192 191 183 147 128
138 161 197 238 315 359 176 293 353 134 165 155 147 149 151 149 157 162 169 169 171 180 196 214 264 293 296 303 299 283 265 251 237 228 222 229 222 220 221 209 209 221 233 153
160 212 283 307 309 315 113 233 167 155 164 187 93 147 155 166 153 163 172 185 191 200 235 281 300 311 325 319 320 331 315 260 232 216 221 221 221 222 215 216 214 209 215 165
86 114 264 6 312 193 256 138 150 145 155 139 130 138 157 165 158 161 181 191 207 236 266 284 283 301 322 338 358 2 350 291 227 223 219 216 220 218 204 207 206 191 196 185
181 216 300 310 274 296 293 288 172 161 162 166 158 153 159 158 164 165 171 185 205 220 217 228 250 259 72 64 59 58 75 93 232 220 231 214 216 206 204 204 198 185 178 170
42 237 298 290 305 315 311 237 207 183 170 173 166 161 154 155 155 161 172 185 188 179 176 162 144 106 103 89 78 75 79 100 46 247 222 207 197 212 210 181 169 168 164 175
272 274 279 279 288 351 49 134 155 167 177 180 175 161 161 163 163 168 170 159 151 141 136 141 127 112 94 92 94 94 74 75 70 94 129 171 175 166 168 167 157 160 167 169
229 221 176 216 174 96 115 122 139 156 156 159 170 169 161 160 158 159 154 155 153 140 130 123 109 106 102 94 83 73 84 89 93 104 119 124 132 143 152 138 141 142 140 142
302 252 227 198 169 215 235 220 186 186 189 166 164 168 166 168 168 165 159 155 152 134 127 116 111 114 108 101 94 93 96 101 104 105 104 100 100 101 126 138 141 143 140 136
33 55 3 167 108 226 212 172 184 175 170 172 166 165 175 174 163 163 164 148 145 145 139 134 134 132 123 114 114 114 109 106 103 98 91 89 88 91 92 93 118 141 144 147
275 295 322 322 292 238 230 179 183 181 175 171 176 182 189 184 177 169 163 147 153 163 160 158 151 137 124 120 122 116 111 107 99 93 88 85 85 84 79 76 87 121 148 152
245 219 255 287 298 269 231 198 198 183 176 177 185 188 188 175 170 175 162 168 177 178 167 150 142 133 126 124 125 121 115 107 99 93 88 86 83 77 73 70 74 113 150 161
205 214 239 256 262 255 257 248 210 206 197 195 186 178 176 177 175 171 168 166 162 156 152 148 144 137 130 129 132 132 128 118 112 105 89 65 54 66 61 78 72 93 161 172
252 254 261 270 281 252 237 231 226 227 219 195 189 187 184 187 182 170 172 168 161 158 152 150 149 144 140 138 141 147 149 154 161 297 292 299 308 293 281 269 262 261 208 203
267 257 255 254 263 257 236 242 234 224 207 199 190 189 191 188 181 174 180 174 167 162 160 158 155 153 155 158 167 182 203 237 272 282 279 280 278 280 282 265 258 249 257 253
299 263 242 239 246 251 251 253 231 214 205 191 183 181 183 184 178 177 177 171 166 161 163 164 169 170 183 207 231 241 252 259 275 283 282 278 278 264 270 274 264 240 243 246
304 282 233 218 227 246 242 228 210 205 196 185 187 185 182 178 180 179 176 174 173 175 180 184 194 196 208 210 266 257 258 261 276 287 280 283 267 262 258 262 267 251 245 243
294 274 208 204 209 224 201 188 185 194 196 188 188 187 182 180 179 181 185 188 183 187 197 195 197 193 195 230 264 262 267 281 289 293 281 274 259 258 260 269 265 265 262 259
294 218 182 190 191 176 171 168 170 178 197 192 189 191 190 188 188 185 186 188 196 182 160 168 188 185 188 223 262 290 298 302 304 303 292 280 272 275 284 290 288 282 271 264
157 156 163 156 143 135 137 145 139 139 159 173 184 191 198 196 193 190 196 196 186 184 179 169 154 168 224 294 302 309 314 306 295 282 263 268 276 298 312 309 295 292 280 274
144 146 139 131 121 91 108 137 131 147 143 146 155 168 188 201 181 167 172 179 180 175 184 174 180 248 213 9 4 359 351 348 336 298 266 277 293 302 304 311 306 304 313 306
142 138 134 114 64 162 171 132 131 130 135 133 130 149 150 149 153 159 162 172 174 178 198 232 251 247 237 355 332 310 324 341 336 327 324 317 309 303 296 291 296 302 306 305
117 121 119 117 117 118 120 117 118 120 131 132 129 126 123 115 91 129 151 175 202 211 213 57 21 353 311 324 334 334 310 310 313 316 316 315 317 319 317 310 306 303 299 298
Wind_Speed_850mb
10 8 8 6 9 13 8 10 9 8 15 15 23 26 27 30 36 42 41 45 48 47 44 39 36 30 30 28 23 24 19 15 13 8 3 8 8 8 8 12 15 18 18 19
6 5 15 10 12 13 9 8 6 6 16 7 16 31 26 32 45 49 55 44 43 43 42 40 31 23 22 24 28 30 30 22 21 18 7 5 7 4 5 6 9 12 13 16
6 6 1 4 11 12 9 9 12 11 11 5 4 14 30 32 46 56 61 50 42 39 37 35 32 28 22 19 22 29 33 32 30 24 13 7 4 3 3 4 4 7 9 11
6 5 5 13 6 7 7 2 5 5 7 9 15 25 23 24 31 44 47 40 35 35 32 26 23 18 15 16 18 18 21 34 39 31 19 15 10 9 7 5 3 3 5 6
8 8 10 1 6 4 4 6 4 3 7 24 42 30 15 20 26 43 38 33 32 28 22 16 12 12 14 17 19 19 22 25 34 37 29 23 16 16 15 10 5 2 1 4
6 8 13 12 2 12 5 7 6 5 12 30 41 10 5 22 30 37 33 27 21 17 13 9 8 11 13 13 15 16 17 21 27 31 34 28 19 23 21 19 12 7 4 6
6 6 11 5 21 17 10 12 2 12 20 15 7 7 35 31 29 28 26 22 18 13 10 9 8 9 11 11 10 9 8 11 22 31 39 35 25 28 28 25 19 11 6 6
4 5 11 15 13 8 4 2 16 26 33 24 28 34 40 35 30 25 21 19 14 10 8 8 6 4 5 4 5 4 2 3 14 25 36 40 35 33 32 27 20 14 9 9
12 9 7 13 16 20 15 9 12 29 34 32 31 31 36 40 33 26 21 15 11 9 7 5 3 1 1 1 4 4 2 4 2 12 23 31 36 39 35 33 26 15 14 13
3 5 7 15 17 14 11 10 13 30 36 34 30 37 38 33 27 20 16 14 12 9 6 4 3 3 5 7 9 8 6 6 1 5 11 19 23 23 18 17 19 16 13 11
7 11 9 11 5 9 4 7 17 34 36 32 34 42 35 32 26 18 15 16 14 11 8 8 10 9 10 11 12 6 11 13 12 8 8 12 16 18 17 18 15 11 15 14
9 12 6 5 5 4 5 11 16 20 29 30 34 34 33 27 17 13 15 17 16 14 11 14 15 14 16 17 17 15 17 21 20 17 17 16 14 14 16 16 16 19 18 13
7 7 9 2 8 10 11 9 13 15 18 29 28 25 27 25 20 19 21 21 17 18 17 14 14 16 18 19 22 22 21 27 27 27 26 24 21 16 11 18 19 18 16 19
4 8 5 3 6 3 8 12 11 16 22 24 28 27 22 21 22 21 25 28 18 19 19 16 14 13 17 23 25 28 35 39 37 37 34 31 27 24 21 17 11 14 17 18
7 10 12 16 13 6 13 13 20 27 28 29 24 17 19 19 19 20 23 23 20 22 22 22 24 30 35 36 38 42 42 43 40 41 40 36 32 32 30 26 17 12 17 22
22 15 11 14 15 12 15 16 20 26 31 30 23 20 16 19 26 27 29 27 29 29 27 34 37 40 42 41 40 40 39 36 33 30 28 26 24 23 23 22 16 11 14 18
16 20 19 21 22 21 17 18 23 23 27 25 21 23 28 33 34 31 28 25 26 33 35 38 41 41 38 36 35 32 26 23 17 12 9 8 8 7 5 6 9 7 10 15
29 32 32 28 24 25 24 22 26 26 26 23 22 23 28 31 33 33 31 30 34 36 41 42 36 33 32 30 27 22 16 8 3 3 8 8 10 12 12 10 7 3 6 13
24 41 40 38 30 28 29 29 38 36 31 28 24 22 23 26 31 37 37 34 35 42 44 41 37 31 26 21 17 15 13 10 10 14 20 22 21 18 17 19 16 15 11 11
18 24 40 41 32 33 37 34 36 40 37 32 26 26 29 28 33 35 36 34 35 40 40 35 30 22 17 15 17 19 18 17 22 28 32 34 32 27 19 13 14 18 17 12
19 20 29 38 31 30 27 23 32 41 39 35 31 29 32 34 37 37 41 42 42 39 35 30 25 18 13 6 8 12 22 23 21 27 31 34 33 33 29 22 20 20 19 19
19 18 27 33 27 19 17 21 23 24 27 34 36 32 36 40 43 43 41 40 38 32 27 27 27 25 18 12 12 10 15 23 30 31 32 33 32 36 33 30 35 35 33 31
18 15 29 30 25 21 23 26 27 22 21 32 40 38 38 41 49 50 50 45 39 33 26 23 23 15 10 8 11 15 21 26 28 26 24 22 19 15 19 27 34 40 48 50
9 24 29 29 30 24 24 24 18 17 21 27 27 28 32 42 50 44 38 38 41 33 35 20 19 12 4 10 19 25 24 25 25 23 19 13 12 20 30 35 35 40 46 49
28 38 45 43 37 29 10 22 23 18 21 19 18 15 14 26 40 41 39 37 29 29 25 18 16 11 4 7 15 18 19 20 16 14 16 17 24 28 30 31 35 34 30 28
43 47 39 23 3 12 23 25 29 25 20 22 18 19 35 39 37 33 28 22 30 29 19 11 9 11 6 7 12 14 15 16 17 15 19 25 31 33 34 34 32 31 34 36
43 40 41 41 38 36 32 28 29 31 32 44 52 41 32 27 14 15 21 20 15 14 1 4 5 5 10 15 17 23 24 27 28 26 30 33 33 31 30 31 33 36 39 41
Wind_Direction_850mb
248 225 192 222 188 170 146 157 148 233 202 243 226 212 183 183 178 178 180 175 190 186 191 192 197 200 205 206 200 210 201 195 178 170 36 9 18 27 75 77 75 69 65 66
341 304 182 194 228 196 175 139 290 232 258 223 256 199 175 172 179 176 180 191 191 191 200 205 216 215 235 215 212 211 213 217 211 213 201 330 1 37 97 93 75 66 67 70
257 338 100 5 200 209 194 165 153 190 241 153 117 141 178 176 186 186 183 180 183 186 191 200 208 209 211 213 215 218 219 223 238 219 216 247 283 166 163 140 93 80 76 78
184 21 188 239 305 246 230 162 223 215 215 182 150 142 138 177 178 179 178 180 174 172 175 175 192 199 217 233 253 251 240 230 236 229 220 229 231 212 188 169 147 125 122 100
151 183 278 273 46 71 90 293 14 17 136 136 141 134 100 130 161 168 170 173 174 180 188 194 212 241 264 270 267 264 252 243 237 235 227 225 222 218 206 192 191 183 147 128
138 161 197 238 315 359 176 293 353 134 165 155 147 149 151 149 157 162 169 169 171 180 196 214 264 293 296 303 299 283 265 251 237 228 222 229 222 220 221 209 209 221 233 153
160 212 283 307 309 315 113 233 167 155 164 187 93 147 155 166 153 163 172 185 191 200 235 281 300 311 325 319 320 331 315 260 232 216 221 221 221 222 215 216 214 209 215 165
86 114 264 6 312 193 256 138 150 145 155 139 130 138 157 165 158 161 181 191 207 236 266 284 283 301 322 338 358 2 350 291 227 223 219 216 220 218 204 207 206 191 196 185
181 216 300 310 274 296 293 288 172 161 162 166 158 153 159 158 164 165 171 185 205 220 217 228 250 259 72 64 59 58 75 93 232 220 231 214 216 206 204 204 198 185 178 170
42 237 298 290 305 315 311 237 207 183 170 173 166 161 154 155 155 161 172 185 188 179 176 162 144 106 103 89 78 75 79 100 46 247 222 207 197 212 210 181 169 168 164 175
272 274 279 279 288 351 49 134 155 167 177 180 175 161 161 163 163 168 170 159 151 141 136 141 127 112 94 92 94 94 74 75 70 94 129 171 175 166 168 167 157 160 167 169
229 221 176 216 174 96 115 122 139 156 156 159 170 169 161 160 158 159 154 155 153 140 130 123 109 106 102 94 83 73 84 89 93 104 119 124 132 143 152 138 141 142 140 142
302 252 227 198 169 215 235 220 186 186 189 166 164 168 166 168 168 165 159 155 152 134 127 116 111 114 108 101 94 93 96 101 104 105 104 100 100 101 126 138 141 143 140 136
33 55 3 167 108 226 212 172 184 175 170 172 166 165 175 174 163 163 164 148 145 145 139 134 134 132 123 114 114 114 109 106 103 98 91 89 88 91 92 93 118 141 144 147
275 295 322 322 292 238 230 179 183 181 175 171 176 182 189 184 177 169 163 147 153 163 160 158 151 137 124 120 122 116 111 107 99 93 88 85 85 84 79 76 87 121 148 152
245 219 255 287 298 269 231 198 198 183 176 177 185 188 188 175 170 175 162 168 177 178 167 150 142 133 126 124 125 121 115 107 99 93 88 86 83 77 73 70 74 113 150 161
205 214 239 256 262 255 257 248 210 206 197 195 186 178 176 177 175 171 168 166 162 156 152 148 144 137 130 129 132 132 128 118 112 105 89 65 54 66 61 78 72 93 161 172
252 254 261 270 281 252 237 231 226 227 219 195 189 187 184 187 182 170 172 168 161 158 152 150 149 144 140 138 141 147 149 154 161 297 292 299 308 293 281 269 262 261 208 203
267 257 255 254 263 257 236 242 234 224 207 199 190 189 191 188 181 174 180 174 167 162 160 158 155 153 155 158 167 182 203 237 272 282 279 280 278 280 282 265 258 249 257 253
299 263 242 239 246 251 251 253 231 214 205 191 183 181 183 184 178 177 177 171 166 161 163 164 169 170 183 207 231 241 252 259 275 283 282 278 278 264 270 274 264 240 243 246
304 282 233 218 227 246 242 228 210 205 196 185 187 185 182 178 180 179 176 174 173 175 180 184 194 196 208 210 266 257 258 261 276 287 280 283 267 262 258 262 267 251 245 243
294 274 208 204 209 224 201 188 185 194 196 188 188 187 182 180 179 181 185 188 183 187 197 195 197 193 195 230 264 262 267 281 289 293 281 274 259 258 260 269 265 265 262 259
294 218 182 190 191 176 171 168 170 178 197 192 189 191 190 188 188 185 186 188 196 182 160 168 188 185 188 223 262 290 298 302 304 303 292 280 272 275 284 290 288 282 271 264
157 156 163 156 143 135 137 145 139 139 159 173 184 191 198 196 193 190 196 196 186 184 179 169 154 168 224 294 302 309 314 306 295 282 263 268 276 298 312 309 295 292 280 274
144 146 139 131 121 91 108 137 131 147 143 146 155 168 188 201 181 167 172 179 180 175 184 174 180 248 213 9 4 359 351 348 336 298 266 277 293 302 304 311 306 304 313 306
142 138 134 114 64 162 171 132 131 130 135 133 130 149 150 149 153 159 162 172 174 178 198 232 251 247 237 355 332 310 324 341 336 327 324 317 309 303 296 291 296 302 306 305
117 121 119 117 117 118 120 117 118 120 131 132 129 126 123 115 91 129 151 175 202 211 213 57 21 353 311 324 334 334 310 310 313 316 316 315 317 319 317 310 306 303 299 298